Overview Statistics Trail Chart Weather Telemetry Raw packets
 

This is the latest recevied weather packets stored in our database for station/object KH6DH-13. If no packets are shown the sender has not sent any weather packets the latest 10 day(s).

<< 25 26 27 28 29 30 31 >>
Time Temp. Humidity Pressure Rain* Wind** Luminosity Snow
1788297580 29.44° C - - 0 mm 1.79 m/s, 63° - -
1788296979 28.89° C - - 0 mm 2.68 m/s, 101° - -
1788296378 28.33° C - - 0 mm 1.79 m/s, 39° - -
1788295777 28.33° C - - 0 mm 0.89 m/s, 127° - -
1788295176 28.33° C - - 0 mm 1.79 m/s, 76° - -
1788294575 27.78° C - - 0 mm 2.24 m/s, 132° - -
1788293974 27.78° C - - 0 mm 1.79 m/s, 146° - -
1788293373 27.22° C - - 0 mm 0.89 m/s, 127° - -
1788292772 27.78° C - - 0 mm 2.24 m/s, 335° - -
1788292171 27.22° C - - 0 mm 0.89 m/s, 62° - -
1788291570 27.22° C - - 0 mm 2.68 m/s, 59° - -
1788290969 27.78° C - - 0 mm 3.13 m/s, 58° - -
1788290368 27.22° C - - 0 mm 0.89 m/s, 53° - -
1788289767 26.67° C - - 0 mm 1.34 m/s, 63° - -
1788289166 26.67° C - - 0 mm 1.79 m/s, 63° - -
1788288565 26.11° C - - 0 mm 1.79 m/s, 17° - -
1788287964 26.11° C - - 0 mm 1.34 m/s, 316° - -
1788287363 26.11° C - - 0.76 mm 1.79 m/s, 333° - -
1788286762 26.11° C - - 0.76 mm 0.45 m/s, 65° - -
1788286159 25.56° C - - 0.76 mm 0.45 m/s, 87° - -
1788285558 25° C - - 0.76 mm 0.45 m/s, 72° - -
1788284957 25.56° C - - 0.76 mm 0.89 m/s, 69° - -
1788284356 25° C - - 0.76 mm 0.89 m/s, 98° - -
1788283755 25° C - - 0 mm 1.34 m/s, 3° - -
1788283154 25° C - - 0 mm 0.45 m/s, 44° - -

* Rain latest hour (hover to see other rain measurements)
** Current wind speed in m/s (hover to see current wind gust speed)